Eveleth, MN

7:00 PM CDT on August 27, 2016 (GMT -0500)
Eveleth-Virginia Municipal

Weather History for KEVM - December, 2012

Change the Weather History Date:

Wednesday, December 12, 2012

  Actual Average Record
Temperature  
Mean Temperature 10 °F -  
Max Temperature 24 °F 25 °F 46 °F (1998)
Min Temperature -4 °F 10 °F -23 °F (2008)
Degree Days  
Heating Degree Days 55    
Moisture  
Dew Point 10 °F    
Average Humidity 86    
Maximum Humidity 93    
Minimum Humidity 78    
Precipitation  
Precipitation 0.00 in - - ()
Sea Level Pressure  
Sea Level Pressure 29.88 in    
Wind  
Wind Speed 2 mph (East)    
Max Wind Speed 13 mph    
Max Gust Speed 16 mph    
Visibility 10 miles    
Events Snow    
Averages and records for this station are not official NWS values.
T = Trace of Precipitation, MM = Missing Value Source: NWS Daily Summary

Daily Weather History Graph

Daily Weather History Graph

Search for Another Location

Airport or City:

Trip Planner

Search our weather history database for the weather conditions in past years. The results will help you decide how hot, cold, wet, or windy it might be!

Date:

Astronomy

Dec. 12, 2012 Rise Set
Actual Time 7:48 AM CST 4:19 PM CST
Civil Twilight 7:13 AM CST 4:54 PM CST
Nautical Twilight 6:33 AM CST 5:33 PM CST
Astronomical Twilight 5:56 AM CST 6:11 PM CST
Moon 6:52 AM CST (12/12) 3:57 PM CST (12/12)
Length of Visible Light 9h 41m
Length of Day
8h 30m
Waning Crescent, 1% of the Moon is Illuminated
Dec 12
Waning Crescent
Dec 13
New
Dec 19
First Quarter
Dec 28
Full
Jan 4
Last Quarter

Hourly Weather History & Observations

Time (CST) Temp. Windchill Dew Point Humidity Pressure Visibility Wind Dir Wind Speed Gust Speed Precip Events Conditions
12:10 AM -0.4 °F - -5.8 °F 78% 29.94 in 10.0 mi Calm Calm - N/A   Clear
12:29 AM -2.2 °F - -5.8 °F 85% 29.93 in 10.0 mi Calm Calm - N/A   Clear
12:49 AM -2.2 °F - -5.8 °F 85% 29.94 in 10.0 mi Calm Calm - N/A   Clear
1:10 AM -2.2 °F - -5.8 °F 85% 29.94 in 10.0 mi Calm Calm - N/A   Clear
1:29 AM -2.2 °F - -7.6 °F 78% 29.94 in 10.0 mi Calm Calm - N/A   Clear
1:49 AM -4.0 °F - -9.4 °F 78% 29.95 in 10.0 mi Calm Calm - N/A   Clear
2:10 AM -2.2 °F - -7.6 °F 78% 29.95 in 10.0 mi Calm Calm - N/A   Clear
2:29 AM -2.2 °F - -7.6 °F 78% 29.95 in 10.0 mi Calm Calm - N/A   Clear
2:49 AM -4.0 °F - -7.6 °F 85% 29.95 in 10.0 mi Calm Calm - N/A   Clear
3:10 AM -2.2 °F - -7.6 °F 78% 29.95 in 10.0 mi Calm Calm - N/A   Clear
3:29 AM -2.2 °F -12.5 °F -7.6 °F 78% 29.95 in 10.0 mi NE 4.6 mph - N/A   Clear
3:49 AM -2.2 °F - -7.6 °F 78% 29.96 in 10.0 mi Calm Calm - N/A   Scattered Clouds
4:10 AM -2.2 °F - -7.6 °F 78% 29.96 in 10.0 mi Calm Calm - N/A   Mostly Cloudy
4:29 AM -2.2 °F - -5.8 °F 85% 29.97 in 10.0 mi Calm Calm - N/A   Mostly Cloudy
4:49 AM -0.4 °F -8.3 °F -5.8 °F 78% 29.97 in 10.0 mi NE 3.5 mph - N/A   Overcast
5:10 AM 1.4 °F - -4.0 °F 78% 29.96 in 10.0 mi Calm Calm - N/A   Overcast
5:29 AM 1.4 °F -6.2 °F -4.0 °F 78% 29.95 in 10.0 mi ENE 3.5 mph - N/A   Mostly Cloudy
5:49 AM 1.4 °F -6.2 °F -4.0 °F 78% 29.95 in 10.0 mi NE 3.5 mph - N/A   Mostly Cloudy
6:10 AM 1.4 °F -8.3 °F -4.0 °F 78% 29.94 in 10.0 mi NE 4.6 mph - N/A   Overcast
6:29 AM 3.2 °F -4.2 °F -0.4 °F 85% 29.94 in 10.0 mi NE 3.5 mph - N/A   Mostly Cloudy
7:10 AM 3.2 °F -4.2 °F -0.4 °F 85% 29.94 in 10.0 mi NE 3.5 mph - N/A   Scattered Clouds
7:30 AM 3.2 °F -6.2 °F -0.4 °F 85% 29.93 in 10.0 mi NE 4.6 mph - N/A   Mostly Cloudy
7:49 AM 1.4 °F -9.9 °F -0.4 °F 92% - 10.0 mi NE 5.8 mph - N/A   Scattered Clouds
8:10 AM 3.2 °F -4.2 °F 1.4 °F 92% 29.92 in 10.0 mi ENE 3.5 mph - N/A   Scattered Clouds
8:29 AM 5.0 °F -2.1 °F 1.4 °F 85% 29.92 in 10.0 mi East 3.5 mph - N/A   Mostly Cloudy
8:49 AM 6.8 °F -0.1 °F 3.2 °F 85% 29.92 in 10.0 mi NE 3.5 mph - N/A Snow Light Snow
9:10 AM 8.6 °F 2.0 °F 5.0 °F 85% 29.91 in 10.0 mi ENE 3.5 mph - N/A   Mostly Cloudy
9:30 AM 10.4 °F 2.2 °F 6.8 °F 85% 29.91 in 10.0 mi ENE 4.6 mph - N/A   Scattered Clouds
9:49 AM 12.2 °F 2.9 °F 10.4 °F 92% 29.90 in 10.0 mi ENE 5.8 mph - N/A   Mostly Cloudy
10:10 AM 14.0 °F 8.2 °F 12.2 °F 93% 29.90 in 10.0 mi East 3.5 mph - N/A   Overcast
10:30 AM 17.6 °F 7.3 °F 15.8 °F 93% 29.88 in 10.0 mi East 8.1 mph - N/A   Mostly Cloudy
10:49 AM 17.6 °F 8.2 °F 14.0 °F 86% 29.87 in 10.0 mi ESE 6.9 mph - N/A   Mostly Cloudy
11:09 AM 19.4 °F 11.5 °F 15.8 °F 86% 29.87 in 10.0 mi ESE 5.8 mph - N/A   Overcast
11:30 AM 21.2 °F 12.6 °F 15.8 °F 80% 29.86 in 10.0 mi ESE 6.9 mph - N/A   Overcast
11:49 AM 21.2 °F 12.6 °F 17.6 °F 86% 29.86 in 10.0 mi ESE 6.9 mph - N/A   Mostly Cloudy
12:09 PM 21.2 °F 11.7 °F 17.6 °F 86% 29.85 in 10.0 mi SE 8.1 mph - N/A   Mostly Cloudy
12:30 PM 23.0 °F 15.8 °F 19.4 °F 86% 29.84 in 10.0 mi SE 5.8 mph - N/A   Mostly Cloudy
12:49 PM - - - N/A% 29.84 in 10.0 mi SE 9.2 mph - N/A   Overcast
1:09 PM 23.0 °F 12.4 °F 19.4 °F 86% 29.83 in 10.0 mi SE 10.4 mph - N/A   Mostly Cloudy
1:49 PM 23.0 °F 11.7 °F 19.4 °F 86% 29.82 in 10.0 mi SE 11.5 mph - N/A   Mostly Cloudy
2:09 PM 24.8 °F 15.3 °F 19.4 °F 80% 29.81 in 10.0 mi SE 9.2 mph - N/A   Mostly Cloudy
2:29 PM 24.8 °F 13.4 °F 19.4 °F 80% 29.80 in 10.0 mi SE 12.7 mph 16.1 mph N/A   Mostly Cloudy
2:49 PM 24.8 °F 16.1 °F 21.2 °F 86% 29.81 in 10.0 mi SE 8.1 mph - N/A   Overcast
3:10 PM 24.8 °F 16.9 °F 21.2 °F 86% 29.82 in 10.0 mi SE 6.9 mph - N/A   Scattered Clouds
3:29 PM 24.8 °F 16.9 °F 21.2 °F 86% 29.82 in 10.0 mi SE 6.9 mph - N/A   Scattered Clouds
3:49 PM 24.8 °F 19.1 °F 21.2 °F 86% 29.82 in 10.0 mi SE 4.6 mph - N/A   Scattered Clouds
4:10 PM 24.8 °F 20.5 °F 21.2 °F 86% 29.82 in 10.0 mi ESE 3.5 mph - N/A   Overcast
4:29 PM 24.8 °F 20.5 °F 21.2 °F 86% 29.82 in 10.0 mi SE 3.5 mph - N/A   Overcast
4:49 PM 24.8 °F 20.5 °F 21.2 °F 86% 29.82 in 10.0 mi SE 3.5 mph - N/A   Overcast
5:10 PM 24.8 °F 20.5 °F 21.2 °F 86% 29.83 in 10.0 mi SE 3.5 mph - N/A   Overcast
5:30 PM 24.8 °F 20.5 °F 21.2 °F 86% 29.83 in 10.0 mi SSE 3.5 mph - N/A   Overcast
5:49 PM 24.8 °F - 21.2 °F 86% 29.83 in 10.0 mi Calm Calm - N/A   Overcast
6:10 PM 24.8 °F - 21.2 °F 86% 29.83 in 10.0 mi Calm Calm - N/A   Overcast
6:49 PM 24.8 °F - 21.2 °F 86% 29.83 in 10.0 mi Calm Calm - N/A   Overcast
7:10 PM 23.0 °F - 21.2 °F 93% 29.84 in 10.0 mi Calm Calm - N/A   Overcast
7:29 PM 23.0 °F - 21.2 °F 93% 29.85 in 10.0 mi Calm Calm - N/A   Overcast
7:49 PM 23.0 °F - 21.2 °F 93% 29.85 in 10.0 mi Calm Calm - N/A   Overcast
8:10 PM 23.0 °F - 21.2 °F 93% 29.85 in 10.0 mi Calm Calm - N/A   Overcast
8:29 PM 23.0 °F - 21.2 °F 93% 29.84 in 10.0 mi Calm Calm - N/A   Overcast
8:49 PM 23.0 °F - 21.2 °F 93% 29.85 in 7.0 mi Calm Calm - N/A   Overcast
9:10 PM 23.0 °F - 21.2 °F 93% 29.85 in 7.0 mi Calm Calm - N/A   Overcast
9:29 PM 23.0 °F - 21.2 °F 93% 29.85 in 7.0 mi Calm Calm - N/A   Overcast
9:49 PM 23.0 °F - 21.2 °F 93% 29.86 in 10.0 mi Calm Calm - N/A   Overcast
10:10 PM 23.0 °F - 21.2 °F 93% 29.86 in 10.0 mi Calm Calm - N/A   Overcast
10:29 PM 23.0 °F - 21.2 °F 93% 29.87 in 10.0 mi Calm Calm - N/A   Overcast
10:49 PM 24.8 °F - 21.2 °F 86% 29.88 in 10.0 mi Calm Calm - N/A   Overcast
11:10 PM 24.8 °F 20.5 °F 21.2 °F 86% 29.88 in 10.0 mi West 3.5 mph - N/A   Overcast
11:29 PM 23.0 °F - 21.2 °F 93% 29.89 in 10.0 mi Calm Calm - N/A   Overcast
11:49 PM 23.0 °F - 21.2 °F 93% 29.89 in 7.0 mi Calm Calm - N/A   Scattered Clouds